[[{"header":{"parameterUnit":"m.s-1","parameterCategory":1,"la1":30.2991,"la2":30.254,"lo1":-89.0895,"lo2":-89.0444,"dy":0.0017,"dx":0.0017,"nx":28,"ny":28,"refTime":"2023-08-19T09:00:00:Z","depth":0,"parameterNumber":2,"parameterNumberName":"U-component_of_WINDS"},"data":[0,0,0,0,0,0,0,0,0,0,0,0,0,0,0,0,0,0,0,0,0,0,0,0,0,0,0,0,0,0,0,0,0,0,0,0,0,0,0,0,0,0,0,0,0,0,0,0,0,0,0,0,0,0,0,0,0,0,0.7952,0.7951,0,0.7937,0.7937,0.7937,0.7876,0.7875,0.7873,0.7872,0.786,0.7861,0.7862,0,0,0,0,0,0,0,0,0,0,0,0,0,0.7928,0.7928,0.7952,0.7951,0.7951,0.7938,0.7937,0.7937,0.7876,0.7874,0.7873,0.7871,0.786,0.7861,0.7862,0,0,0,0,0,0,0,0,0,0,0,0,0,0.7928,0.7929,0.7952,0.7919,0.7916,0.7938,0.7937,0.7937,0.7877,0.7874,0.7872,0.787,0.7859,0.7861,0.7862,0.7915,0,0,0.7867,0.7868,0,0,0,0,0,0,0,0,0.7928,0.7929,0.7924,0.7921,0.7918,0.7906,0.7924,0.793,0.7877,0.7892,0.7872,0.7869,0.7877,0.7877,0.7879,0.7914,0.7914,0.7867,0.7868,0.7869,0.7869,0,0,0,0,0,0,0,0.7928,0.793,0.7946,0.7924,0.792,0.7906,0.7904,0.7925,0.7897,0.789,0.7886,0.7885,0.7875,0.7878,0.7879,0.7914,0.7867,0.7869,0.787,0.787,0.799,0.7992,0,0,0,0,0,0,0.7933,0.793,0.7947,0.7946,0.7918,0.7908,0.7905,0.7912,0.7896,0.7892,0.7887,0.7882,0.7877,0.7877,0.7878,0.7938,0.7869,0.787,0.7871,0.7988,0.7991,0.7993,0,0,0,0,0,0,0.7932,0.7935,0.7947,0.7937,0.7937,0.7911,0.7919,0.7913,0.7916,0.7894,0.7889,0.7895,0.7875,0.7876,0.7906,0.7937,0.7871,0.7872,0.7985,0.7989,0.7992,0.8058,0,0,0,0,0,0,0.7932,0.7935,0.7954,0.7937,0.7938,0.7975,0.7921,0.7914,0.7918,0.7912,0.79,0.7896,0.7873,0.7904,0.7907,0.7938,0.7874,0.7982,0.7987,0.7991,0.8053,0.8064,0.8072,0,0,0,0,0,0.7931,0.7975,0.7956,0.7958,0.7961,0.7977,0.7977,0.7949,0.7921,0.794,0.7926,0.7896,0.7933,0.7907,0.7911,0.7942,0.798,0.7985,0.799,0.8049,0.8061,0.8072,0,0,0,0,0,0,0.7997,0.7972,0.7951,0.7989,0.7985,0.7966,0.799,0.7964,0.7969,0.7963,0.7929,0.7927,0.7962,0.7955,0.7927,0.7991,0.7951,0.7957,0.7995,0.8006,0.8016,0.8017,0.7875,0,0,0,0,0,0.8016,0.803,0.8007,0.8044,0.8043,0.8017,0.8022,0.8001,0.7996,0.7995,0.7982,0.798,0.799,0.7998,0.8007,0.8052,0.8048,0.8075,0.8084,0.8092,0.8098,0.8121,0.8132,0.801,0.801,0.801,0,0,0.8055,0.8043,0.8054,0.8056,0.8051,0.8066,0.8016,0.8035,0.8046,0.7998,0.8025,0.8016,0.801,0.8048,0.8064,0.8043,0.8131,0.8099,0.8105,0.8107,0.8127,0.8139,0.8149,0.8013,0.8012,0.8012,0,0,0.8135,0.8127,0.8156,0.8151,0.8143,0.8125,0.8132,0.8117,0.8109,0.8135,0.8099,0.8112,0.8131,0.8128,0.813,0.8207,0.8179,0.8211,0.8261,0.8283,0.8293,0.8301,0.8328,0.8339,0.8216,0.8217,0.8217,0,0.8185,0.8206,0.8175,0.8195,0.8197,0.8153,0.8182,0.818,0.8175,0.8178,0.8154,0.8177,0.817,0.8206,0.8224,0.8227,0.8234,0.8212,0.8294,0.8302,0.8309,0.8335,0.8345,0.822,0.822,0.8219,0.8219,0,0.8268,0.8283,0.8308,0.8303,0.8308,0.8333,0.8305,0.8314,0.8293,0.8278,0.8305,0.8295,0.83,0.8307,0.8287,0.834,0.8327,0.83,0.8259,0.8325,0.8349,0.8358,0.8226,0.8224,0.8223,0.8222,0,0,0.839,0.8366,0.8375,0.8372,0.8359,0.8371,0.8394,0.8398,0.8406,0.8404,0.8422,0.8439,0.8413,0.8414,0.8393,0.8413,0.8474,0.8382,0.8382,0.8399,0.8531,0.8552,0.8564,0.8456,0.8457,0.8459,0.8532,0,0.8465,0.8501,0.8473,0.8515,0.8529,0.8487,0.8506,0.8501,0.8487,0.8497,0.8482,0.8494,0.8459,0.8459,0.8477,0.8463,0.85,0.8457,0.8473,0.8474,0.8475,0.8576,0.8599,0.8668,0.8541,0.8542,0.8543,0,0.8558,0.8559,0.8602,0.8585,0.8589,0.8608,0.8608,0.8618,0.8611,0.86,0.8601,0.8574,0.8596,0.8555,0.8585,0.8556,0.8561,0.8555,0.8557,0.8557,0.8513,0.8579,0.869,0.87,0.8558,0.8556,0.8555,0,0.8641,0.8653,0.868,0.8679,0.866,0.8674,0.8667,0.8657,0.8661,0.8663,0.8665,0.8669,0.8672,0.8676,0.8651,0.8624,0.8683,0.8641,0.8675,0.8676,0.8689,0.8689,0.8802,0.8693,0.8693,0.8693,0.8692,0,0.8728,0.8756,0.8717,0.8734,0.8763,0.8731,0.8762,0.875,0.8742,0.8756,0.8721,0.8735,0.8701,0.8712,0.8693,0.872,0.8722,0.8713,0.8708,0.8716,0.8717,0.8719,0.8713,0.8695,0.8695,0.8694,0.8694,0,0.8826,0.8801,0.8828,0.8807,0.8803,0.8826,0.8809,0.8823,0.8807,0.8825,0.8827,0.8802,0.8813,0.8788,0.8796,0.8783,0.8822,0.8809,0.8824,0.882,0.8855,0.8852,0.8972,0.8986,0.8869,0.887,0.8871,0,0.8883,0.8903,0.8885,0.8891,0.8885,0.8896,0.8899,0.8868,0.8873,0.8866,0.8882,0.8889,0.8894,0.8913,0.8896,0.8901,0.8888,0.893,0.8889,0.8896,0.8888,0.8887,0.8889,0.8939,0.894,0.8941,0.8942,0,0.8987,0.8973,0.8979,0.898,0.8985,0.8985,0.8982,0.8989,0.8956,0.8964,0.8973,0.8977,0.8984,0.8992,0.8993,0.8986,0.8959,0.8955,0.8963,0.8972,0.8979,0.8975,0.8847,0.8952,0.8951,0.8951,0.895,0.895,0.9066,0.9081,0.907,0.9077,0.9072,0.907,0.9082,0.9067,0.9074,0.9077,0.9058,0.9072,0.9064,0.9062,0.9059,0.9069,0.9051,0.9062,0.9065,0.9069,0.9074,0.8978,0.907,0.9069,0.9069,0.9069,0.9069,0,0.9167,0.9157,0.9164,0.9161,0.9167,0.9139,0.9135,0.9142,0.9154,0.9148,0.9152,0.9163,0.9171,0.9154,0.9158,0.917,0.9158,0.9173,0.9171,0.917,0.9091,0.9083,0.9183,0.9183,0.9183,0.9182,0.9182,0.9182,0.922,0.9245,0.923,0.9251,0.9241,0.9254,0.9253,0.9252,0.9247,0.926,0.9265,0.9254,0.9244,0.9247,0.9253,0.9247,0.9251,0.927,0.9261,0.9187,0.9176,0.9165,0.9158,0.9271,0.9271,0.9339,0.934,0.934]},{"header":{"parameterUnit":"m.s-1","parameterCategory":1,"la1":30.2991,"la2":30.254,"lo1":-89.0895,"lo2":-89.0444,"dy":0.0017,"dx":0.0017,"nx":28,"ny":28,"refTime":"2023-08-19T09:00:00:Z","depth":0,"parameterNumber":3,"parameterNumberName":"V-component_of_WINDS"},"data":[0,0,0,0,0,0,0,0,0,0,0,0,0,0,0,0,0,0,0,0,0,0,0,0,0,0,0,0,0,0,0,0,0,0,0,0,0,0,0,0,0,0,0,0,0,0,0,0,0,0,0,0,0,0,0,0,0,0,3.4721,3.4722,0,3.4778,3.4779,3.478,3.4764,3.4763,3.4762,3.4761,3.4814,3.4817,3.4819,0,0,0,0,0,0,0,0,0,0,0,0,0,3.4595,3.4597,3.4721,3.4722,3.4723,3.4778,3.4779,3.478,3.4764,3.4763,3.4762,3.476,3.4814,3.4816,3.4819,0,0,0,0,0,0,0,0,0,0,0,0,0,3.465,3.4598,3.4721,3.4722,3.4722,3.4778,3.4779,3.478,3.4765,3.4763,3.4761,3.476,3.4813,3.4816,3.482,3.4877,0,0,3.4831,3.4833,0,0,0,0,0,0,0,0,3.4647,3.4655,3.4721,3.4722,3.4723,3.4762,3.4754,3.4812,3.4765,3.4748,3.4761,3.4759,3.4798,3.4803,3.4817,3.4879,3.4881,3.4831,3.4834,3.4835,3.4836,0,0,0,0,0,0,0,3.4643,3.4652,3.4744,3.4722,3.4723,3.4718,3.4724,3.4765,3.4782,3.475,3.4749,3.4756,3.4798,3.4814,3.4818,3.4882,3.4831,3.4835,3.4837,3.4838,3.4993,3.4995,0,0,0,0,0,0,3.464,3.4649,3.4742,3.4745,3.468,3.4722,3.4728,3.4751,3.4781,3.4785,3.4757,3.4755,3.4808,3.4814,3.482,3.4888,3.4835,3.4839,3.4841,3.4992,3.4994,3.4996,0,0,0,0,0,0,3.4637,3.4648,3.4739,3.4697,3.4708,3.4726,3.4751,3.4753,3.4769,3.4787,3.479,3.477,3.4807,3.4815,3.4863,3.489,3.484,3.4844,3.4989,3.4992,3.4995,3.5025,0,0,0,0,0,0,3.4633,3.4647,3.467,3.4698,3.4711,3.4783,3.4753,3.4756,3.4776,3.4773,3.48,3.4803,3.4806,3.4858,3.4867,3.4894,3.4847,3.4987,3.4991,3.4994,3.5022,3.5029,3.5035,0,0,0,0,0,3.4629,3.4675,3.4671,3.4682,3.474,3.4784,3.4791,3.4796,3.4778,3.48,3.4812,3.4802,3.4886,3.4863,3.4873,3.4902,3.4985,3.499,3.4994,3.5019,3.5027,3.5034,0,0,0,0,0,0,3.4647,3.4679,3.4674,3.4731,3.4756,3.4782,3.481,3.4805,3.4833,3.4829,3.4832,3.4838,3.4888,3.49,3.4873,3.4958,3.4933,3.4939,3.4948,3.4957,3.4963,3.4958,3.485,0,0,0,0,0,3.4659,3.4694,3.4718,3.4766,3.4779,3.4792,3.4812,3.4814,3.4838,3.4847,3.4863,3.4886,3.4917,3.4938,3.4968,3.5024,3.5029,3.5049,3.5055,3.506,3.5065,3.5096,3.5104,3.501,3.501,3.501,0,0,3.4681,3.4702,3.4724,3.477,3.4789,3.4824,3.4801,3.4839,3.4864,3.4853,3.4899,3.4912,3.4937,3.499,3.5013,3.5001,3.5093,3.5066,3.507,3.5072,3.5101,3.511,3.5118,3.5013,3.5012,3.5012,0,0,3.474,3.476,3.4802,3.4822,3.4852,3.4861,3.4871,3.4898,3.4906,3.4954,3.4946,3.4976,3.503,3.5049,3.5065,3.5132,3.5124,3.5142,3.5175,3.5204,3.5212,3.5218,3.5241,3.5249,3.5147,3.5147,3.5148,0,3.4763,3.4817,3.4824,3.4863,3.4883,3.4876,3.4918,3.4937,3.4974,3.4987,3.4974,3.5042,3.5059,3.5115,3.5132,3.5146,3.5156,3.5138,3.521,3.5217,3.5223,3.5245,3.5254,3.5149,3.5149,3.5149,3.5149,0,3.4844,3.4882,3.4912,3.495,3.4974,3.5014,3.5025,3.5048,3.5048,3.5058,3.5106,3.5127,3.5161,3.5174,3.5174,3.5231,3.5222,3.521,3.5184,3.5234,3.5255,3.5263,3.5152,3.5152,3.5151,3.5151,0,0,3.4914,3.4957,3.4968,3.4985,3.5018,3.5046,3.5086,3.5121,3.514,3.5167,3.5199,3.5246,3.5235,3.5253,3.5255,3.5281,3.5332,3.5265,3.5266,3.5276,3.5395,3.5404,3.5413,3.5328,3.5329,3.533,3.5393,0,3.4975,3.5046,3.5054,3.5117,3.5151,3.5146,3.518,3.5204,3.5215,3.5244,3.5255,3.5288,3.5271,3.5283,3.5309,3.5321,3.5356,3.5316,3.5356,3.5357,3.5348,3.5424,3.5433,3.5491,3.5401,3.5402,3.5403,0,3.5055,3.5085,3.5152,3.5181,3.5196,3.5227,3.5259,3.5288,3.5314,3.532,3.5342,3.5341,3.538,3.5355,3.5409,3.5382,3.5398,3.5407,3.5409,3.5412,3.5382,3.5428,3.551,3.5518,3.5416,3.5415,3.5414,0,3.5098,3.5156,3.5203,3.5218,3.5253,3.5275,3.529,3.5315,3.5336,3.5364,3.5377,3.541,3.5427,3.5451,3.5458,3.5439,3.5512,3.5486,3.5516,3.5516,3.553,3.5529,3.5615,3.5544,3.5544,3.5543,3.5543,0,3.5164,3.5205,3.5223,3.5252,3.5298,3.5306,3.535,3.5364,3.5386,3.5417,3.5415,3.5443,3.5452,3.5481,3.5487,3.553,3.5538,3.5543,3.5544,3.5543,3.5542,3.5552,3.5548,3.5546,3.5545,3.5545,3.5544,0,3.5219,3.5233,3.5284,3.5314,3.5323,3.5355,3.5379,3.5407,3.5418,3.5457,3.5466,3.5483,3.5518,3.5528,3.557,3.5574,3.5624,3.5622,3.5616,3.5616,3.5644,3.5641,3.5739,3.5752,3.5673,3.5674,3.5675,0,3.5259,3.5291,3.5325,3.5346,3.5363,3.5397,3.5419,3.5428,3.545,3.5483,3.5506,3.5542,3.557,3.5626,3.5641,3.5673,3.567,3.5703,3.5675,3.5673,3.5669,3.5667,3.567,3.5707,3.5708,3.5709,3.5709,0,3.5329,3.5335,3.5367,3.5402,3.5429,3.5456,3.5483,3.55,3.5513,3.5538,3.5575,3.5598,3.5641,3.5675,3.5708,3.5722,3.5717,3.5718,3.5727,3.5725,3.572,3.5722,3.5629,3.5715,3.5715,3.5714,3.5714,3.5714,3.5377,3.5405,3.5433,3.5469,3.5491,3.5516,3.5543,3.5559,3.559,3.5628,3.5631,3.5671,3.5696,3.574,3.5756,3.5786,3.5776,3.5789,3.5791,3.5794,3.5796,3.5716,3.5792,3.5792,3.5792,3.5792,3.5791,0,3.5446,3.5464,3.5498,3.5536,3.5564,3.556,3.5589,3.5612,3.5648,3.5673,3.5702,3.5744,3.5778,3.5796,3.583,3.585,3.5849,3.5858,3.5856,3.5859,3.5803,3.5792,3.5859,3.5859,3.5859,3.5859,3.5859,3.5859,3.5485,3.5532,3.5541,3.5598,3.5616,3.5656,3.5673,3.5696,3.5716,3.5764,3.5793,3.5806,3.5828,3.5863,3.5894,3.5898,3.591,3.592,3.5924,3.587,3.5863,3.5857,3.5846,3.5923,3.5923,3.5977,3.5977,3.5978]}]]